FW2969 Weather Reports


time (UTC)temp
C
wind
direction
speed
KPH
gust
KPH
rain 1hr
cm
rain 24hr
cm
rain mn
cm
humidity
%
barometer
mb
20260905104610 23 276 3.2 14.5 0.00 0.00 0.00 82 1011.3
20260905103051 23 267 3.2 14.5 0.00 0.00 0.00 82 1011.3
20260905101650 23 250 3.2 16.1 0.00 0.00 0.00 80 1011.2
20260905100049 22 311 3.2 14.5 0.00 0.00 0.00 81 1011.2
20260905094652 22 271 3.2 11.3 0.00 0.00 0.00 80 1011.3
20260905093052 22 280 4.8 14.5 0.00 0.00 0.00 82 1011.2
20260905091549 22 311 6.4 16.1 0.00 0.00 0.00 81 1011.2
20260905090046 22 323 4.8 16.1 0.00 0.00 0.00 80 1011.2
20260905084557 23 263 4.8 16.1 0.00 0.00 0.00 77 1011.2
20260905083043 23 313 6.4 16.1 0.00 0.00 0.00 75 1011.1
20260905081543 23 267 4.8 11.3 0.00 0.00 0.00 73 1011.1
20260905080044 23 240 3.2 14.5 0.00 0.00 0.00 71 1011.1
20260905074541 23 294 4.8 9.7 0.00 0.00 0.00 69 1011.2
20260905073037 23 327 3.2 8.0 0.00 0.00 0.00 71 1011.3
20260905071544 22 278 3.2 9.7 0.00 0.00 0.00 71 1011.3
20260905070035 22 289 1.6 8.0 0.00 0.00 0.00 70 1011.1
20260905064534 22 322 1.6 6.4 0.00 0.00 0.00 67 1011.1
20260905063033 22 298 0.0 3.2 0.00 0.00 0.00 68 1011.1
20260905061551 23 307 0.0 1.6 0.00 0.00 0.00 64 1011.0
20260905060049 23 105 0.0 0.0 0.00 0.00 0.00 57 1011.0
20260905054535 22 105 0.0 4.8 0.00 0.00 0.00 51 1010.9
20260905053024 21 95 0.0 0.0 0.00 0.00 0.00 51 1011.0
20260905051529 21 95 0.0 0.0 0.00 0.00 0.00 54 1010.8
20260905050016 20 95 0.0 0.0 0.00 0.00 0.00 57 1010.8
20260905044515 18 95 0.0 0.0 0.00 0.00 0.00 64 1010.7
20260905043018 17 95 0.0 1.6 0.00 0.00 0.00 72 1010.5
20260905041513 16 95 0.0 1.6 0.00 0.00 0.00 80 1010.4
20260905040010 15 95 0.0 1.6 0.00 0.00 0.00 87 1010.3
20260905034507 16 93 0.0 1.6 0.00 0.00 0.00 91 1010.2
20260905033003 17 93 0.0 1.6 0.00 0.00 0.00 92 1010.2
20260905031506 17 93 0.0 0.0 0.00 0.00 0.00 93 1010.1
20260905030002 17 93 0.0 0.0 0.00 0.00 0.00 92 1009.9
20260905024503 17 93 0.0 0.0 0.00 0.00 0.00 92 1009.9
20260905023100 17 93 0.0 0.0 0.00 0.00 0.00 91 1009.9
20260905021606 17 93 0.0 0.0 0.00 0.00 0.00 90 1009.8
20260905020056 17 93 0.0 1.6 0.00 0.00 0.00 91 1009.8
20260905014554 18 93 0.0 0.0 0.00 0.00 0.00 89 1009.7
20260905013113 18 93 0.0 0.0 0.00 0.00 0.00 88 1009.8
20260905011550 18 93 0.0 0.0 0.00 0.00 0.00 86 1009.8
20260905010054 18 93 0.0 0.0 0.00 0.00 0.00 84 1009.8
20260905004545 19 93 0.0 0.0 0.00 0.00 0.00 81 1009.9
20260905003042 19 93 0.0 0.0 0.00 0.00 0.00 73 1009.9
20260905001539 19 93 0.0 3.2 0.00 0.00 0.00 60 1010.0
20260905000038 19 101 0.0 1.6 0.00 0.00 0.00 56 1009.9
20260904234541 19 101 0.0 0.0 0.00 0.00 0.00 57 1009.9
20260904233037 19 101 0.0 0.0 0.00 0.00 0.00 58 1009.9
20260904231536 19 101 0.0 1.6 0.00 0.00 0.00 59 1009.9
20260904230055 19 101 0.0 3.2 0.00 0.00 0.00 58 1010.0
20260904224533 19 101 0.0 3.2 0.00 0.00 0.00 56 1010.0
20260904223030 20 101 1.6 4.8 0.00 0.00 0.00 55 1010.2
20260904221528 20 101 3.2 6.4 0.00 0.00 0.00 54 1010.2
20260904220030 20 101 3.2 6.4 0.00 0.00 0.00 54 1010.2
20260904214526 20 99 3.2 8.0 0.00 0.00 0.00 56 1010.2
20260904213031 20 105 3.2 8.0 0.00 0.00 0.00 57 1010.3
20260904211523 20 95 3.2 8.0 0.00 0.00 0.00 55 1010.3
20260904210022 20 81 1.6 8.0 0.00 0.00 0.00 55 1010.3
20260904204523 19 74 1.6 4.8 0.00 0.00 0.00 58 1010.4
20260904203026 18 119 1.6 4.8 0.00 0.00 0.00 62 1010.3
20260904201533 18 93 0.0 3.2 0.00 0.00 0.00 69 1010.4
20260904200034 18 92 0.0 3.2 0.00 0.00 0.00 75 1010.2
20260904194513 18 92 0.0 3.2 0.00 0.00 0.00 83 1010.1
20260904193013 19 108 0.0 6.4 0.00 0.00 0.00 89 1010.1
20260904191514 19 105 1.6 6.4 0.00 0.00 0.00 91 1010.1
20260904190012 19 103 0.0 3.2 0.00 0.00 0.00 93 1010.0
20260904184510 20 90 0.0 3.2 0.00 0.00 0.00 93 1010.0
20260904183008 20 95 0.0 1.6 0.00 0.00 0.00 93 1010.1
20260904181508 20 103 0.0 3.2 0.00 0.00 0.00 93 1010.0
20260904180007 20 104 0.0 1.6 0.00 0.00 0.00 92 1010.0
20260904174506 20 104 0.0 3.2 0.00 0.00 0.00 92 1009.8
20260904173005 20 302 0.0 1.6 0.00 0.00 0.00 92 1009.8
20260904171503 20 301 0.0 1.6 0.00 0.00 0.00 92 1009.6
20260904170001 20 301 0.0 0.0 0.00 0.00 0.00 91 1009.3
20260904164601 21 301 0.0 0.0 0.00 0.00 0.00 91 1009.1
20260904163059 21 301 0.0 1.6 0.00 0.00 0.00 90 1008.9
20260904161601 21 301 0.0 1.6 0.00 0.00 0.00 90 1008.7
20260904160059 21 301 0.0 1.6 0.00 0.00 0.00 89 1008.6
20260904154556 22 311 0.0 3.2 0.00 0.00 0.00 88 1008.5
20260904153110 22 311 0.0 3.2 0.00 0.00 0.00 88 1008.4
20260904151553 22 301 0.0 4.8 0.00 0.00 0.00 88 1008.4
20260904150054 22 264 0.0 4.8 0.00 0.00 0.00 86 1008.4
20260904144603 22 294 0.0 9.7 0.00 0.00 0.00 86 1008.3
20260904143112 23 290 1.6 9.7 0.00 0.00 0.00 84 1008.3
20260904141554 23 283 1.6 4.8 0.00 0.00 0.00 84 1008.4
20260904140054 22 255 3.2 16.1 0.00 0.00 0.00 85 1008.4
20260904134556 23 264 1.6 9.7 0.00 0.00 0.00 85 1008.4
20260904133103 23 309 3.2 11.3 0.00 0.00 0.00 84 1008.3
20260904131549 23 335 4.8 14.5 0.00 0.00 0.00 82 1008.2
20260904130055 23 267 3.2 9.7 0.00 0.00 0.00 81 1008.2
20260904124551 24 255 1.6 9.7 0.00 0.00 0.00 81 1008.1
20260904123052 23 333 6.4 16.1 0.00 0.00 0.00 82 1008.2
20260904121548 23 280 6.4 16.1 0.00 0.00 0.00 82 1008.2
20260904120058 23 348 4.8 14.5 0.00 0.00 0.00 81 1008.3
20260904114549 23 322 3.2 14.5 0.00 0.00 0.00 81 1008.2
20260904113046 24 323 4.8 17.7 0.00 0.00 0.00 79 1008.4
20260904111545 23 19 4.8 11.3 0.00 0.00 0.00 80 1008.4
20260904110045 23 311 4.8 16.1 0.00 0.00 0.00 81 1008.4